Voltar ao catálogo

STARLINK-11175

AtivoComunicaçõesVLEO
NORAD 60191·PAYLOAD·🇺🇸 United States

Lançado Jul 3, 2024 de Cape Canaveral Space Force Station

Loading…

Próximas Passagens (próximas 24 horas)

TLE

AtualizadoSource: CelesTrak SupGP

Época: Sep 15, 2026, 02:49 UTC

1 60191C 24124J   26258.11784722  .00058981  00000+0  48570-3 0  2580
2 60191  53.1566 307.6399 0001191  83.4982 260.9583 15.69687350    12

Acompanhe STARLINK-11175 em tempo real com AllMySat

Download on the App Store